Regional Weather Roundup
Issued by NWS

Home | Current Version | Previous Version | Text Only | Print | Product List | Glossary Off
Versions: 1 2 3 4 5 6 7 8 9 10 11 12 13 14 15 16 17 18 19 20 21 22 23 24 25 26 27 28 29 30 31 32 33 34 35 36 37 38 39 40 41 42 43 44 45 46 47 48 49 50

000
ASUS43 KOAX 030910
RWRNE

WEATHER ROUNDUP FOR NEBRASKA
NATIONAL WEATHER SERVICE OMAHA NE
400 AM CDT SUN MAY 03 2015

NOTES: SATELLITE DATA IS BEING USED TO AUGMENT CLOUD COVER ABOVE
       12000 FEET.
       "FAIR" INDICATES FEW OR NO CLOUDS BELOW 12,000 FEET WITH NO
       SIGNIFICANT WEATHER AND/OR OBSTRUCTIONS TO VISIBILITY.

  * THESE STATIONS DO NOT REPORT WEATHER SUCH AS RAIN...SNOW OR FOG.

NEZ001>004-019>022-054>056-031000-
NEBRASKA PANHANDLE

CITY           SKY/WX    TMP DP  RH WIND       PRES   REMARKS
SCOTTSBLUFF    MOCLDY    56  41  57 NW5       29.81S
ALLIANCE       MOCLDY    45  40  82 W8        29.78F
CHADRON        MOCLDY    46  39  76 SW5       29.76S
KIMBALL        PTCLDY    50  42  75 W10       29.87S
SIDNEY         CLEAR     52  42  69 W12       29.85F
$$

NEZ057>060-069>072-079>082-031000-
SOUTHWEST NEBRASKA

CITY           SKY/WX    TMP DP  RH WIND       PRES   REMARKS
NORTH PLATTE   CLEAR     50  45  83 S3        29.76S
IMPERIAL       PTCLDY    54  42  64 W8        29.79F
LEXINGTON      MOCLDY    54  46  75 CALM      29.75S
MCCOOK         MOCLDY    58  45  62 W5        29.77R
OGALLALA       CLEAR     56  46  68 W13       29.78S
$$

NEZ005>010-023>029-035>040-094-031000-
NORTH CENTRAL NEBRASKA

CITY           SKY/WX    TMP DP  RH WIND       PRES   REMARKS
VALENTINE      MOCLDY    49  41  74 CALM      29.70S
AINSWORTH      MOCLDY    57  42  58 NW7       29.69S
BROKEN BOW     PTCLDY    55  42  61 W7        29.71S
O`NEILL        PTCLDY    59  53  80 SE9       29.70S
ORD            CLEAR     52  45  77 CALM      29.69F
THEDFORD       MOCLDY    60  44  55 SW8       29.73F
$$

NEZ041-046>049-061>064-073>077-083>087-031000-
SOUTH CENTRAL NEBRASKA

CITY           SKY/WX    TMP DP  RH WIND       PRES   REMARKS
GRAND ISLAND   CLEAR     61  51  70 VRB6      29.73R
AURORA         CLEAR     61  53  75 S8        29.73R
HASTINGS       PTCLDY    62  51  67 S6        29.72F
HEBRON         PTCLDY    64  52  65 S9        29.73F
HOLDREGE       MOCLDY    60  46  59 CALM      29.74S
KEARNEY *      PTCLDY    61  46  59 SW12      29.73S
YORK           CLEAR     63  55  77 SE9       29.75S
$$

NEZ011>018-030>034-042>045-031000-
NORTHEAST NEBRASKA

CITY           SKY/WX    TMP DP  RH WIND       PRES   REMARKS
NORFOLK        CLEAR     63  52  67 S12G20    29.73R
ALBION         CLEAR     59  53  80 SE14      29.71F
BLAIR          CLOUDY    60  55  84 SE10      29.77F
COLUMBUS *     CLEAR     61  48  63 SE13      29.77F
FREMONT        PTCLDY    64  53  68 SE13G22   29.76F
TEKAMAH        CLOUDY    60  55  83 S12       29.73F
WAYNE          PTCLDY    60  52  73 S13       29.74F
$$

NEZ050>053-065>068-078-088>093-031000-
SOUTHEAST NEBRASKA

CITY           SKY/WX    TMP DP  RH WIND       PRES   REMARKS
LINCOLN        PTCLDY    63  52  67 E8        29.79F
OMAHA EPPLEY   CLOUDY    61  58  90 SE15      29.78F THUNDER
BEATRICE       PTCLDY    64  53  69 E7        29.79R
FALLS CITY     CLOUDY    63  53  70 S5        29.83F
NEBRASKA CITY  MOCLDY    61  53  74 E7        29.83F
PLATTSMOUTH    MOCLDY    58  56  91 CALM      29.82F
$$

NEZ044-045-051>053-067-031000-
OMAHA AREA

CITY           SKY/WX    TMP DP  RH WIND       PRES   REMARKS
OMAHA EPPLEY   CLOUDY    61  58  90 SE15      29.78F THUNDER
BLAIR          CLOUDY    60  55  84 SE10      29.77F
FREMONT        PTCLDY    64  53  68 SE13G22   29.76F
MILLARD        MOCLDY    61  57  88 SE12      29.78F
OFFUTT AFB     TSTM      59  57  94 E9        29.79F
PLATTSMOUTH    MOCLDY    58  56  91 CALM      29.82F
WAHOO          FAIR      60  53  76 SE12      29.77F
$$


USA.gov is the U.S. government's official web portal to all federal, state and local government web resources and services.